{"data":{"norad_id":42740,"intl_designator":"2017-029A","name":"VIASAT-2","alt_names":[],"object_type":"PAYLOAD","status":"ACTIVE","operator":null,"country":"US","launch_date":"2017-06-01","launch_site_code":"FRGUI","launch_vehicle":null,"mission":null,"orbit_class":"UNKNOWN","rcs_meters":null,"size_class":null,"mass_kg":null,"dimensions":null,"purposes":["comms"],"wikipedia_slug":null,"has_3d_model":false,"image_url":null,"decayed_at":null,"tle_current":{"epoch":"2026-05-24T23:22:38.556768Z","epoch_age_seconds":70531,"freshness":"FRESH","line1":"1 42740U 17029A   26144.97405737 -.00000268  00000+0  00000+0 0  9990","line2":"2 42740   0.0138 288.0340 0000121 127.7761 107.5366  1.00270921 32972","mean_motion":1.00270921,"eccentricity":1.21e-5,"inclination_deg":0.0138,"raan_deg":288.034,"arg_perigee_deg":127.7761,"mean_anomaly_deg":107.5366,"bstar":0,"rev_number":3297,"period_min":1436.1092783819,"perigee_km":35786.326977306,"apogee_km":35787.347369681,"semimajor_km":42164.974173494,"source":"CELESTRAK","updated_at":"2026-05-25T13:38:14.044937Z"}}}